Regional Weather Roundup
Issued by NWS

Home | Current Version | Previous Version | Graphics & Text | Print | Product List | Glossary On
Versions: 1 2 3 4 5 6 7 8 9 10 11 12 13 14 15 16 17 18 19 20 21 22 23 24 25 26 27
000
ASUS45 KCYS 251410
RWRWY

WYOMING REGIONAL WEATHER ROUNDUP
NATIONAL WEATHER SERVICE CHEYENNE WY
800 AM MDT MON JUL 25 2016

NOTE:  "FAIR" INDICATES FEW OR NO CLOUDS BELOW 12,000 FEET
WITH NO SIGNIFICANT WEATHER AND/OR OBSTRUCTIONS TO VISIBILITY.

WYZ001-251500-
YELLOWSTONE NATIONAL PARK

CITY           SKY/WX    TMP DP  RH WIND       PRES   REMARKS
LK YELLOWSTONE   N/A     48  40  73 CALM      30.40S
W YELLOWSTONE  NOT AVBL

$$
WYZ002>013-054>058-071-098>099-251500-
NORTHERN WYOMING

CITY           SKY/WX    TMP DP  RH WIND       PRES   REMARKS
JACKSON        SUNNY     48  36  61 CALM      30.33R
CODY           FAIR      70  36  28 SW5       30.15S
GREYBULL       FAIR      63  41  44 S3        30.08S
WORLAND        FAIR      64  34  32 SW5       30.10R
SHERIDAN       FAIR      69  44  40 CALM      30.07S
BUFFALO        FAIR      72  40  31 CALM      30.15R
GILLETTE       FAIR      71  54  54 SE7       30.12R
HULETT         FAIR      73  54  49 W6        30.12S
NEWCASTLE      FAIR      72  48  43 SE10      30.15S

$$
WYZ014>020-022>026-101>103-251500-
CENTRAL WYOMING

CITY           SKY/WX    TMP DP  RH WIND       PRES   REMARKS
BIG PINEY      FAIR      52  28  39 E6        30.34R
PINEDALE       FAIR      48  32  53 W6        30.36S
DUBOIS         FAIR      55  28  35 NW10      30.32S HAZE
LANDER         FAIR      63  35  35 CALM      30.21R
RIVERTON       FAIR      65  37  35 W8        30.20R
CASPER         FAIR      63  49  60 CALM      30.19R
DOUGLAS          N/A    N/A N/A N/A MISG      30.19R

$$
WYZ021-027>030-104>119-251500-
SOUTHERN WYOMING

CITY           SKY/WX    TMP DP  RH WIND       PRES   REMARKS
EVANSTON       FAIR      63  23  21 NE7       30.31F
KEMMERER         N/A     55  30  38 N8        30.34R
FORT BRIDGER   FAIR      67  24  20 CALM      30.35R
ROCK SPRINGS   FAIR      62  21  20 S3        30.31R
DIXON          FAIR      58  36  43 CALM      30.34R
RAWLINS        FAIR      59  36  42 CALM      30.31R
SARATOGA       FAIR      63  39  42 CALM      30.34R
LARAMIE        FAIR      62  45  53 S3        30.33R
CHEYENNE       FAIR      64  55  72 S3        30.24S
TORRINGTON     FAIR      65  56  72 SE13      30.15R
PINE BLUFFS    FAIR      61  57  88 S3        30.24R

$$




USA.gov is the U.S. government's official web portal to all federal, state and local government web resources and services.